Location: ????? ???? ???
(30.8450°N, 60.4903°E)
Time: 07:32:18
(UTC+00:00)

Daily predictions for brighter satellites

Satellite Brightness Start Highest point End
(mag) Time Altitude Azimuth Time Altitude Azimuth Time Altitude Azimuth
YAOGAN 6 2.7 13:18:45 10° S 13:22:25 86° W 13:26:05 10° NNW
USA 215 3.8 13:16:04 10° NNE 13:22:27 58° NW 13:28:49 10° WSW
Cosmos 1500 Rocket 3.6 13:19:04 10° N 13:23:29 85° E 13:27:54 10° S
SL-16 R/B 2.7 13:20:24 10° S 13:25:35 39° ESE 13:30:49 10° NE
Radarsat Rocket 4.0 13:21:24 10° SSE 13:27:13 88° ENE 13:33:28 10° NNW
Cosmos 1867 3.6 13:23:08 10° SSW 13:28:30 76° ESE 13:33:57 10° NNE
Cosmos 372 Rocket 4.4 13:25:16 10° NNW 13:30:24 70° WSW 13:35:33 10° S
H-2A R/B 3.4 13:28:51 10° S 13:33:11 56° WSW 13:37:25 10° NNW
Abrixas rocket 4.0 13:33:33 10° N 13:34:27 11° NNE 13:35:15 10° NE
Cosmos 389 Rocket 2.3 13:31:37 10° S 13:35:02 72° E 13:38:28 10° NNE
Cosmos 1933 3.9 13:31:53 10° SSE 13:35:32 35° E 13:39:14 10° NNE
Cosmos 405 Rocket 3.0 13:31:42 10° N 13:35:37 77° W 13:39:36 10° S
Okean-O 4.3 13:35:45 10° E 13:37:52 13° ENE 13:40:01 10° NE
ATLAS 5 CENTAUR R/B 3.9 13:32:34 10° NW 13:38:32 46° WSW 13:45:10 10° S
Cosmos 2298 Rocket 4.0 13:35:38 10° NNW 13:40:57 84° ENE 13:46:16 10° SSE
AQUARIUS 4.1 13:36:52 10° SSE 13:41:21 86° ENE 13:45:51 10° N
Cosmos 2150 Rocket 3.9 13:37:14 10° NNW 13:42:24 78° ENE 13:47:32 10° SSE
Mugunghwa Rocket 4.4 13:36:27 10° W 13:42:41 61° S 13:49:19 10° ESE
Cosmos 1818 3.9 13:38:08 10° NNW 13:43:20 43° ENE 13:48:28 10° SE
COSMO-SKYMED 1 2.7 13:41:18 10° NNE 13:45:33 54° E 13:49:47 10° S
Okean O Rocket 1.8 13:44:48 10° S 13:49:06 74° WSW 13:53:27 10° NNW
Cosmos 1606 3.1 13:46:21 10° SSW 13:50:12 67° W 13:54:05 10° N
Meteosat 1 Rocket2 4.3 13:44:16 10° W 13:50:27 49° SSW 13:54:43 10° ESE
Cosmos 1689 Rocket 2.5 13:49:26 12° NNE 13:51:53 38° E 13:54:38 10° S
PSLV R/B 4.3 13:48:51 10° NNE 13:52:42 42° E 13:56:32 10° S
Cosmos 1782 3.8 13:51:05 10° SSE 13:54:21 25° E 13:56:15 18° NE
Sich 1 2.9 13:50:56 10° N 13:55:19 68° E 13:59:36 10° SSE
Cosmos 1125 Rocket 3.4 13:52:26 10° NNW 13:57:38 74° ENE 14:02:49 10° SSE
IRS-1C Rocket 4.4 13:54:22 10° SE 13:59:19 43° ENE 14:04:16 10° N
Cosmos 2278 Rocket 2.4 13:56:01 10° NNW 14:01:42 79° WSW 14:07:21 10° SSE
Cosmos 962 Rocket 4.4 13:56:45 10° N 14:03:02 82° E 14:09:13 10° S
Cosmos 1151 Rocket 2.9 13:59:25 10° S 14:03:40 67° E 14:07:56 10° NNE
FALCON 9 R/B 0.8 14:03:38 10° W 14:05:44 44° N 14:06:26 33° NE
Cosmos 1805 Rocket 4.1 14:01:28 10° NNW 14:05:51 62° W 14:10:12 10° S
Cosmos 2341 Rocket 4.0 14:02:35 10° N 14:08:54 81° E 14:15:14 10° S
Cosmos 1328 Rocket 3.4 14:04:54 10° S 14:09:09 67° E 14:13:26 10° NNE
Cosmos 1356 3.2 14:08:24 10° N 14:11:49 87° E 14:15:13 10° S
Cosmos 1666 Rocket 3.5 14:07:43 10° N 14:12:06 65° E 14:16:30 10° SSE
SAR-Lupe-4 4.0 14:08:46 10° N 14:12:18 61° WNW 14:15:49 10° SSW
DELTA 2 R/B (1) 4.3 14:07:56 10° WNW 14:13:19 52° SW 14:18:40 10° SE
Lacrosse 5 rocket 2.0 14:11:03 10° WSW 14:14:36 43° NW 14:16:49 19° NNE
Meteor 1-25 Rocket 4.3 14:09:17 10° N 14:14:46 53° E 14:20:19 10° SSE
CZ-4B R/B 3.9 14:14:24 10° NNW 14:16:42 20° WNW 14:19:02 10° WSW
Orbus 7S 3.5 14:14:18 10° WSW 14:17:45 45° S 14:18:31 34° SE
SL-24 R/B - RUBIN 2 4.0 14:11:54 10° NNW 14:17:55 83° ENE 14:23:09 10° SSE
SL-24 R/B 4.0 14:14:35 10° N 14:18:29 69° WNW 14:22:08 10° SSW
CZ-2D R/B 3.1 14:16:42 10° SSE 14:20:26 61° ENE 14:24:12 10° N
CZ-4 R/B 3.0 14:18:39 10° SE 14:26:19 - N 14:19:46 18° SE
Cosmos 2285 Rocket 4.3 14:17:58 10° N 14:23:57 41° ENE 14:29:52 10° SE
USA 281 3.4 14:17:52 10° SE 14:24:04 48° ENE 14:30:19 10° N
Meteor 1-4 Rocket 2.4 14:22:40 10° S 14:26:21 76° E 14:27:30 41° NNE
ATLAS 3B CENTAUR R/B 1.1 14:24:32 10° WSW 14:26:11 40° SSW 14:26:11 40° SSW
H-2A R/B 3.5 14:23:41 10° SE 14:31:11 21° NNE 14:33:10 10° N
USA 81 4.0 14:23:33 10° N 14:28:50 90° NNW 14:34:06 10° S
Orbus 7S 3.7 14:28:11 10° WSW 14:30:34 37° S 14:30:50 36° SSE
Cosmos 1943 4.1 14:26:41 10° SSE 14:30:47 29° ESE 14:30:47 29° ESE
SL-8 Rocket 4.0 14:27:19 10° N 14:33:34 84° W 14:39:51 10° S
Cosmos 864 Rocket 4.4 14:27:24 10° N 14:33:43 74° E 14:39:56 10° S
Cosmos 773 Rocket 4.3 14:28:59 10° SSW 14:34:10 69° WNW 14:38:53 13° N
SL-24 DEB 4.2 14:30:04 10° N 14:34:49 86° W 14:39:31 10° S
Cosmos 1939 Rocket 3.6 14:31:12 10° S 14:34:56 51° W 14:38:42 10° NNW
Cosmos 1959 Rocket 4.5 14:36:24 10° N 14:42:47 88° W 14:49:07 10° S
Cosmos 1633 Rocket 3.4 14:38:34 10° NNW 14:42:54 64° W 14:47:11 10° S
GENESIS II 4.4 14:39:45 10° NNW 14:43:38 68° WSW 14:44:42 43° S
X-37B 1.9 14:44:16 10° WSW 14:46:25 39° WSW 14:46:25 39° WSW
NOSS 3-2 (A) 4.2 14:43:24 10° S 14:46:40 28° SE 14:46:40 28° SE
MOS 1 Rocket 3.9 14:45:44 10° N 14:51:09 69° WNW 14:56:29 10° SSW
SL-08 R/B 4.3 14:55:44 10° N 15:01:52 79° E 15:07:58 10° S
USA 238 DEB 4.2 14:56:32 10° S 15:01:12 38° SE 15:01:12 38° SE
USA 238 4.2 14:56:38 10° S 15:01:15 37° SE 15:01:15 37° SE
YAOGAN 1 4.2 14:58:32 10° S 15:07:03 11° NNW 15:07:09 10° NNW
Meteor 2-6 Rocket 4.1 15:02:12 10° S 15:07:57 88° E 15:08:10 84° NNE
Cosmos 2297 3.6 15:03:03 10° NNW 15:08:46 85° WSW 15:09:45 62° S
CZ-2C R/B 3.6 15:03:50 10° S 15:09:04 58° W 15:14:02 10° NNW
SL-16 R/B 4.3 15:05:25 10° WSW 15:09:46 22° WNW 15:14:08 10° N
Meteor 1-14 Rocket 4.2 15:04:57 10° N 15:10:55 88° W 15:16:55 10° S
Cosmos 1943 Rocket 4.0 15:07:10 10° N 15:08:30 18° N 15:08:30 18° N
Okean-O 3.8 15:09:45 10° S 15:13:55 42° W 15:18:07 10° NNW
USA 267 3.7 15:34:22 49° NNW 15:34:22 49° NNW 15:39:03 10° NW
H-2A R/B (2) 3.3 15:20:44 10° W 15:42:08 55° SSW 15:42:36 54° SSW
CZ-3 R/B 4.5 22:24:23 10° W 23:27:19 68° SSW 23:41:17 10° SE
Atlas Centaur 2 4.1 23:32:25 24° SE 23:32:25 24° SE 23:35:53 10° ESE
Lacrosse 5 4.5 23:34:40 14° SE 23:36:11 15° ESE 23:39:05 10° E
ALOS 4.3 23:46:12 10° NE 23:52:03 23° SE 23:54:19 10° SSE
